User: anonymous   Login
Location: Unspecified
(0.0000°N, 0.0000°E)
Time: 22:24:50
(UTC+00:00)
Language:

STARLINK-32795 - Orbit

View from above orbital plane
View from above orbital plane
View from above satellite
View from above satellite

Ground track
Ground track

The orbit is defined by the following mean orbital elements,

1 63042U          26145.58335647 +.00000000 +00000-0 -13992-3 0 00005
2 63042  53.1603 260.6950 0001042  92.7211 254.6790 15.33546699    06
Epoch (UTC): 25 May 2026 14:00:01
Eccentricity: 0.0001042
inclination: 53.1603°
perigee height: 465 km
apogee height: 466 km
right ascension of ascending node: 260.6950°
argument of perigee: 92.7211°
revolutions per day: 15.33546699
mean anomaly at epoch: 254.6790°

The dashed part of the orbit path shows where the satellite is in the earth's shadow,  

DLR